Wetbulb
40.64 35.40 33.52 36.39 37.36 37.77 34.97 34.34 32.77 36.83 41.53 38.30 38.41 37.75 40.23 43.37 42.59 40.26 42.01 41.23 40.45 40.35 41.84 42.33 42.63 42.71 42.85 42.76 42.38 42.70 43.39 44.61 45.35 47.60 48.13 48.48 49.08 50.54 51.74 52.46 52.75 52.30 52.07 51.95
37.04 33.44 39.59 40.69 40.59 38.76 37.21 34.67 33.52 37.28 40.87 38.67 37.52 36.50 41.18 43.00 41.59 39.99 39.72 38.95 39.44 39.80 39.49 39.75 39.99 40.50 40.79 41.08 41.54 41.64 41.98 42.31 43.20 44.71 45.77 47.38 47.55 48.09 48.96 49.44 50.84 51.61 51.05 50.32
35.93 39.15 42.46 41.48 39.04 37.84 35.53 34.12 33.76 34.84 37.41 37.98 35.50 33.65 37.27 40.30 39.80 40.02 39.68 39.67 39.20 38.24 37.51 38.00 38.07 37.40 38.17 38.52 38.94 40.12 40.97 41.61 41.46 42.15 43.49 43.83 44.25 44.56 44.32 44.90 45.46 47.34 49.86 49.36
38.25 42.36 41.25 38.97 37.88 38.41 33.30 39.04 37.76 35.89 31.77 28.98 34.61 25.87 34.79 37.12 35.54 36.64 36.79 36.37 36.63 37.09 37.76 37.85 37.35 37.04 36.89 36.42 37.54 37.96 38.59 39.55 40.96 40.87 39.95 38.68 38.88 38.38 39.78 40.98 42.19 43.04 45.06 47.33
37.96 36.94 35.62 35.81 37.90 39.24 36.00 37.65 35.45 34.03 30.75 29.45 30.68 27.09 32.07 35.57 32.75 34.13 34.82 35.79 36.03 36.54 36.95 36.35 36.21 37.07 37.31 37.02 35.80 35.80 36.88 37.48 38.05 38.90 38.92 38.13 37.00 37.73 38.00 38.97 38.96 39.93 40.93 42.29
37.56 38.42 37.60 37.84 38.08 38.44 38.85 35.28 34.57 32.28 30.37 25.08 31.02 29.50 30.60 32.04 34.74 34.14 35.12 35.75 36.76 36.77 36.63 36.57 36.99 36.71 36.03 35.66 35.25 35.39 35.57 35.75 36.24 36.32 36.85 36.83 35.99 35.87 35.93 36.11 36.42 37.26 38.51 39.63
36.21 36.19 37.46 38.98 34.37 36.35 35.22 32.04 26.10 24.35 23.13 24.67 32.44 29.11 32.55 34.88 36.58 35.79 34.95 34.98 35.64 35.82 34.36 33.83 34.19 34.41 34.47 33.85 34.41 36.17 35.52 35.08 35.41 35.04 35.25 35.18 35.12 34.71 34.68 34.80 34.98 34.95 35.76 36.43
30.67 29.36 36.16 38.71 37.18 35.50 34.08 35.19 28.60 18.44 22.22 25.28 31.23 26.64 32.95 35.89 36.74 36.32 35.36 34.29 34.09 32.31 32.44 32.07 32.50 32.59 32.88 33.02 32.92 33.24 33.60 33.26 33.51 33.55 34.03 34.59 34.91 34.38 34.26 34.26 34.59 34.32 34.37 34.67
31.35 31.17 36.98 37.83 38.89 39.48 35.06 31.79 36.24 29.53 18.78 20.53 26.37 31.27 34.69 36.07 34.15 33.70 33.18 32.64 31.09 31.10 31.06 30.97 31.14 31.10 30.95 31.18 31.31 31.73 31.69 31.95 31.73 31.72 32.18 32.67 33.43 32.54 31.56 31.54 32.07 32.36 32.50 33.70
36.49 30.52 37.02 36.82 37.55 37.64 36.55 36.56 28.56 27.93 16.36 12.49 23.27 24.72 27.38 31.26 31.23 32.43 31.46 30.55 30.66 31.05 30.12 29.78 29.85 30.39 30.51 30.11 30.20 30.62 30.84 30.82 30.62 30.43 30.12 31.23 31.20 31.72 30.74 30.09 28.96 29.34 30.49 31.01
37.31 33.15 31.61 35.07 33.14 33.17 32.67 30.51 31.77 31.72 28.35 20.86 17.56 23.05 32.52 33.30 31.81 30.53 31.73 32.66 30.82 30.54 28.73 28.85 29.69 30.57 31.29 31.98 31.57 31.57 31.41 31.18 30.76 30.44 29.28 29.01 29.57 30.19 30.06 28.35 28.12 28.37 28.39 28.85
37.47 36.16 29.29 31.84 36.36 36.90 35.07 31.83 32.26 26.04 24.65 27.07 27.48 27.62 35.73 33.18 32.32 32.52 31.92 32.29 31.14 31.42 29.06 27.98 28.94 29.66 30.46 30.61 30.75 30.27 30.37 30.12 30.39 30.67 29.85 29.06 28.89 29.36 29.14 28.31 27.77 27.50 26.69 27.54
37.19 31.47 16.79 20.21 29.18 33.79 31.54 32.96 33.26 32.20 30.31 23.65 23.47 25.33 33.80 33.90 32.86 31.65 31.16 30.60 28.85 28.32 27.96 29.78 29.16 28.60 29.31 29.41 30.06 30.02 29.13 28.59 29.05 28.67 27.92 27.43 27.02 26.64 27.41 28.09 27.62 28.14 27.58 26.55
38.56 29.80 22.79 20.38 24.48 29.32 25.93 29.44 29.85 28.85 22.35 21.62 23.19 25.31 30.66 31.58 29.81 28.16 27.22 26.35 26.15 26.28 27.29 27.08 27.52 27.16 27.47 28.40 28.09 28.19 28.44 29.23 29.26 28.86 28.04 27.31 26.97 27.73 27.91 28.04 26.65 26.76 26.90 26.22
34.02 24.88 27.14 27.40 29.61 27.82 26.60 26.53 25.86 23.36 24.34 18.03 22.86 22.49 26.58 27.51 25.66 24.29 24.26 25.12 25.34 25.75 26.48 26.36 26.35 26.35 26.44 26.32 26.41 27.15 27.60 27.86 28.19 27.45 26.96 26.77 27.54 27.67 27.75 27.13 27.14 26.82 26.45 25.99
29.02 19.94 22.56 16.75 25.17 24.94 22.72 24.29 23.85 24.27 24.55 23.59 24.21 23.50 28.23 23.29 22.92 21.46 23.46 23.72 23.98 24.52 25.35 25.26 26.41 26.65 26.52 26.75 26.66 27.05 26.69 26.61 26.22 25.50 25.83 27.06 27.57 28.26 28.29 28.45 28.26 27.98 27.45 26.66
24.50 19.22 12.56 8.54 20.12 16.83 10.00 18.99 22.28 22.98 23.29 22.78 19.01 22.95 20.47 22.35 23.49 22.48 21.88 23.47 23.83 24.29 25.50 25.61 25.69 25.76 25.92 25.60 26.58 25.79 25.41 25.13 24.62 25.31 25.88 26.01 26.18 26.04 26.52 27.04 26.89 26.62 26.42 26.63
21.18 15.76 11.01 4.30 5.71 -1.06 18.35 22.29 23.02 21.28 21.07 21.78 20.64 18.96 20.45 22.33 23.07 23.24 23.07 23.22 24.58 25.29 24.99 25.02 24.90 24.77 25.45 25.08 24.11 23.35 23.74 23.00 22.80 22.22 21.94 22.08 21.70 20.51 19.89 19.01 19.04 19.24 19.89 20.79
25.60 21.70 6.54 3.81 -5.95 10.23 18.73 20.48 19.45 18.60 15.28 17.66 17.87 20.63 22.10 22.66 21.24 19.89 25.13 25.75 25.17 23.78 25.21 25.29 24.40 23.85 22.22 21.39 20.74 20.25 19.74 19.45 18.77 18.15 18.22 18.40 16.22 13.74 14.24 12.42 12.89 13.46 13.48 14.07
22.53 23.63 15.29 -5.46 -1.65 -2.70 10.36 17.51 21.28 18.24 9.11 13.05 15.67 15.35 17.19 21.42 12.52 18.73 23.81 25.46 25.09 25.07 24.49 22.61 21.23 21.27 20.16 19.05 19.05 17.08 16.15 15.46 14.39 15.21 14.85 14.20 12.83 10.23 8.34 8.40 7.42 8.02 7.84 9.22
6.75 5.77 13.61 10.65 1.25 5.75 18.13 21.22 22.77 6.72 11.65 20.22 21.23 18.08 17.51 17.11 20.14 23.82 24.40 23.31 23.46 22.78 21.06 21.10 19.16 18.56 18.09 17.74 16.17 13.70 13.16 11.69 13.12 12.48 11.43 10.24 9.04 6.49 5.55 4.95 5.16 4.09 3.69 5.27
9.02 4.55 2.09 4.92 3.76 2.54 21.78 20.09 15.82 20.53 22.92 24.19 22.12 22.54 22.56 23.40 24.03 23.85 23.35 21.56 19.90 18.95 18.74 19.07 16.49 15.73 15.91 15.44 12.85 10.62 9.61 11.67 10.19 8.85 7.01 5.07 3.72 3.63 4.33 2.04 2.12 2.11 1.65 1.04
9.90 13.73 8.37 11.78 10.06 20.28 21.30 20.76 24.23 24.53 23.04 23.09 22.63 23.39 23.28 23.19 23.15 22.76 20.55 18.49 18.33 17.29 17.49 16.51 13.20 12.59 12.82 12.39 10.96 7.56 8.56 8.59 6.96 3.66 1.36 0.78 1.63 2.31 2.48 0.59 0.48 0.38 0.90 0.50
16.54 19.12 14.30 13.30 18.92 21.06 23.28 23.79 25.07 24.94 24.29 25.30 24.93 24.32 23.58 22.37 21.20 19.83 19.21 18.22 16.34 15.46 13.83 12.80 10.48 9.18 8.49 9.26 8.89 7.26 6.98 6.32 2.34 -0.62 -0.53 0.38 0.05 -0.06 0.59 1.85 2.05 0.79 0.16 -0.03
17.87 18.88 14.46 14.33 20.66 22.34 23.09 23.78 25.02 25.11 25.26 24.93 23.48 22.74 21.77 19.92 17.81 17.35 15.77 14.58 13.51 12.45 11.52 9.92 8.10 7.36 6.13 6.20 5.30 4.77 4.75 2.60 0.06 -0.12 -0.07 -0.78 -0.48 -1.03 -0.62 0.89 0.91 1.80 3.80 4.95
22.52 20.18 16.90 14.48 23.58 21.62 22.56 24.83 25.67 24.44 24.13 24.33 20.90 18.19 19.24 18.33 16.13 14.36 12.51 12.32 10.53 8.86 7.93 6.58 5.65 4.02 3.04 2.66 2.10 2.26 1.53 0.30 -0.69 -1.28 -1.41 -1.67 -1.53 -1.06 -0.34 -0.52 -0.27 7.27 10.15 12.19
MSLP
1016.58 1017.12 1017.16 1016.90 1016.92 1016.75 1016.87 1016.85 1016.64 1015.98 1015.32 1015.18 1015.02 1014.75 1014.40 1013.31 1013.29 1013.77 1014.40 1016.00 1017.07 1017.93 1018.66 1018.46 1018.53 1018.38 1018.04 1017.51 1017.36 1017.44 1017.21 1017.26 1016.85 1016.67 1016.91 1017.22 1017.62 1017.59 1017.64 1017.56 1017.49 1017.67 1017.92 1018.11
1017.04 1016.81 1016.39 1016.43 1016.73 1016.94 1016.91 1016.90 1016.60 1016.00 1015.44 1015.56 1015.22 1015.10 1014.01 1013.03 1013.68 1014.41 1015.87 1017.29 1018.20 1018.85 1019.12 1019.80 1019.77 1019.53 1019.36 1019.46 1019.15 1018.75 1018.71 1018.57 1018.36 1018.06 1017.90 1017.86 1017.87 1018.02 1018.12 1018.11 1018.01 1018.04 1018.09 1018.22
1016.42 1015.94 1015.86 1016.18 1016.36 1016.66 1016.55 1016.67 1016.53 1016.58 1016.22 1015.77 1015.75 1015.47 1014.59 1014.93 1015.46 1016.02 1017.38 1018.18 1019.02 1019.80 1020.13 1020.48 1020.60 1020.68 1020.66 1020.62 1020.58 1020.28 1019.97 1019.77 1019.51 1019.19 1018.79 1018.62 1018.62 1018.66 1018.94 1018.89 1018.75 1018.62 1018.35 1018.26
1016.20 1015.52 1015.61 1015.76 1016.08 1016.25 1016.49 1016.01 1016.27 1016.61 1017.04 1017.13 1016.67 1016.68 1015.56 1015.37 1017.03 1017.86 1018.70 1019.19 1019.86 1020.57 1020.87 1021.28 1021.71 1021.65 1021.72 1021.99 1021.77 1021.56 1021.32 1020.93 1020.67 1020.48 1020.23 1020.20 1020.36 1020.61 1020.65 1020.32 1019.85 1019.35 1018.90 1018.77
1016.02 1015.68 1015.70 1015.69 1015.64 1015.78 1016.30 1016.22 1016.46 1016.77 1017.46 1017.99 1017.48 1017.86 1016.05 1016.40 1018.05 1018.97 1020.02 1020.48 1020.81 1020.95 1021.48 1022.13 1022.44 1022.51 1022.42 1022.24 1022.27 1022.08 1021.93 1021.82 1021.60 1021.31 1021.34 1021.36 1021.27 1021.23 1020.96 1020.80 1020.61 1020.21 1019.58 1019.18
1016.23 1015.77 1015.68 1015.46 1015.52 1015.45 1016.00 1016.79 1017.07 1017.56 1018.37 1018.81 1018.28 1017.93 1016.81 1017.01 1017.37 1019.38 1020.72 1021.25 1021.80 1022.16 1022.26 1022.42 1022.67 1022.81 1022.96 1023.00 1023.00 1022.69 1022.69 1022.57 1022.46 1022.12 1021.91 1022.07 1021.98 1021.75 1021.35 1021.28 1021.17 1021.19 1020.84 1020.21
1016.12 1015.60 1015.13 1015.20 1015.73 1016.12 1016.38 1017.30 1018.28 1018.89 1019.49 1019.03 1018.37 1018.53 1017.15 1017.11 1017.94 1019.35 1020.74 1021.77 1022.34 1022.84 1023.09 1023.41 1023.55 1023.44 1023.58 1023.57 1023.73 1023.44 1023.35 1023.20 1023.11 1022.85 1022.49 1022.50 1022.66 1022.24 1022.04 1021.97 1022.10 1022.04 1021.80 1021.23
1016.36 1015.91 1015.39 1015.06 1015.14 1015.52 1016.33 1017.03 1018.15 1019.02 1019.94 1019.58 1018.93 1018.80 1018.22 1018.57 1019.06 1020.37 1021.37 1022.05 1022.81 1023.33 1023.71 1024.08 1024.20 1024.45 1024.50 1024.44 1024.50 1024.51 1024.28 1024.33 1023.98 1023.54 1023.27 1023.17 1022.77 1023.03 1022.67 1022.14 1022.01 1022.34 1022.30 1022.18
1015.84 1015.76 1015.42 1015.12 1015.15 1015.30 1016.11 1016.89 1017.45 1018.79 1020.34 1020.52 1019.36 1018.84 1019.48 1019.68 1020.12 1020.97 1021.84 1022.46 1023.11 1023.55 1023.89 1024.35 1024.54 1024.69 1024.89 1024.95 1024.93 1024.90 1024.90 1024.95 1024.89 1024.64 1024.41 1023.98 1024.09 1024.20 1023.14 1022.12 1022.46 1022.46 1022.33 1021.92
1015.70 1016.43 1016.16 1015.79 1015.95 1016.13 1016.18 1016.82 1018.04 1019.39 1020.78 1020.80 1019.63 1019.19 1019.08 1020.03 1020.66 1021.27 1021.99 1022.65 1023.15 1023.49 1023.96 1024.40 1024.61 1024.82 1024.88 1025.01 1025.05 1025.06 1025.01 1025.02 1024.81 1024.68 1024.52 1024.59 1024.74 1024.06 1023.19 1022.85 1022.91 1023.00 1022.71 1022.00
1016.07 1016.76 1017.26 1017.00 1017.09 1017.01 1017.39 1017.68 1018.44 1019.35 1020.20 1020.52 1020.19 1019.08 1018.21 1019.35 1020.64 1021.52 1022.06 1022.32 1022.83 1023.47 1023.96 1024.20 1024.34 1024.53 1024.70 1024.81 1024.94 1024.97 1024.90 1024.81 1024.77 1024.45 1024.32 1024.23 1023.92 1023.60 1023.22 1023.09 1022.93 1022.86 1022.53 1022.14
1017.26 1017.83 1018.43 1018.20 1017.78 1017.68 1017.85 1018.32 1019.03 1020.31 1020.83 1020.57 1020.17 1018.86 1018.40 1019.41 1020.40 1021.01 1021.50 1022.07 1022.54 1023.00 1023.60 1023.95 1024.07 1024.17 1024.19 1024.28 1024.34 1024.42 1024.42 1024.31 1024.15 1023.96 1023.88 1023.68 1023.39 1023.32 1023.18 1022.63 1022.40 1022.13 1022.07 1021.85
1017.92 1019.04 1019.90 1019.68 1019.47 1019.00 1019.41 1019.69 1020.17 1020.85 1021.60 1021.38 1021.25 1018.91 1019.01 1019.75 1020.73 1021.42 1021.96 1022.31 1022.69 1023.02 1023.42 1023.62 1023.76 1023.87 1023.98 1024.02 1024.05 1023.96 1023.94 1023.91 1023.64 1023.63 1023.48 1023.26 1023.09 1022.77 1022.54 1022.24 1021.90 1021.66 1021.42 1020.93
1018.79 1020.00 1020.55 1020.47 1020.84 1020.80 1020.98 1020.96 1021.23 1021.97 1022.77 1022.29 1020.72 1020.18 1018.94 1020.10 1021.16 1021.94 1022.42 1022.62 1022.89 1023.12 1023.36 1023.56 1023.63 1023.77 1023.88 1023.82 1023.73 1023.72 1023.57 1023.34 1023.24 1023.08 1023.03 1023.00 1022.60 1022.24 1022.00 1021.43 1021.21 1020.85 1020.49 1019.97
1020.33 1021.47 1021.95 1021.66 1021.96 1021.86 1021.64 1021.33 1022.05 1022.38 1021.89 1022.54 1020.42 1020.98 1020.05 1020.74 1021.47 1022.12 1022.69 1023.07 1023.18 1023.30 1023.22 1023.37 1023.66 1023.78 1023.81 1023.85 1023.74 1023.63 1023.43 1023.09 1022.84 1022.87 1022.77 1022.54 1022.12 1021.72 1021.51 1021.41 1020.84 1020.23 1019.79 1019.38
1021.95 1022.79 1023.56 1023.89 1023.63 1023.34 1022.71 1021.61 1021.99 1021.99 1021.75 1021.81 1021.77 1020.99 1021.16 1021.44 1022.01 1022.76 1023.09 1023.20 1023.26 1023.29 1023.39 1023.58 1023.65 1023.72 1023.76 1023.83 1023.85 1023.83 1023.73 1023.58 1023.48 1023.36 1023.04 1022.49 1022.02 1021.61 1021.14 1020.52 1019.72 1019.11 1018.62 1018.22
1023.01 1024.18 1025.88 1026.15 1025.50 1025.12 1023.86 1021.64 1021.56 1021.06 1021.06 1021.54 1021.97 1021.52 1022.15 1022.22 1022.64 1022.97 1023.08 1023.21 1023.29 1023.40 1023.52 1023.60 1023.68 1023.83 1024.08 1024.30 1024.31 1024.32 1024.27 1024.14 1024.01 1023.68 1023.15 1022.69 1022.15 1021.50 1020.77 1020.03 1019.30 1018.62 1017.98 1017.26
1023.49 1025.29 1026.91 1028.35 1028.38 1026.97 1022.35 1021.57 1021.39 1021.49 1021.60 1021.71 1022.30 1022.40 1022.41 1022.50 1022.69 1022.95 1023.02 1023.07 1023.15 1023.22 1023.35 1023.55 1023.85 1024.14 1024.36 1024.60 1024.63 1024.66 1024.51 1024.42 1024.18 1023.79 1023.40 1022.93 1022.47 1022.08 1021.70 1021.24 1020.58 1019.80 1019.03 1017.97
1023.70 1025.35 1027.82 1029.73 1029.68 1026.35 1022.74 1021.56 1021.52 1021.97 1022.16 1022.35 1022.62 1022.80 1022.78 1022.97 1022.94 1022.93 1022.68 1022.61 1022.60 1022.89 1023.29 1023.71 1024.11 1024.37 1024.55 1024.62 1024.80 1024.85 1024.73 1024.60 1024.41 1024.00 1023.59 1023.27 1023.29 1022.90 1022.32 1021.78 1021.14 1020.40 1019.55 1018.43
1024.74 1025.56 1027.43 1030.17 1029.48 1026.82 1023.43 1022.06 1021.63 1022.11 1022.43 1022.20 1022.47 1022.98 1023.01 1023.05 1023.17 1022.61 1022.38 1022.42 1022.70 1023.11 1023.52 1023.86 1024.21 1024.52 1024.64 1024.76 1024.78 1024.74 1024.70 1024.68 1024.55 1024.26 1024.02 1023.90 1023.65 1023.30 1022.79 1022.24 1021.48 1020.70 1019.86 1018.39
1026.23 1027.02 1027.07 1027.93 1027.66 1025.01 1022.51 1021.90 1021.90 1022.46 1022.12 1021.62 1022.07 1022.47 1022.66 1022.90 1022.47 1022.07 1022.26 1022.61 1023.07 1023.45 1023.80 1024.06 1024.41 1024.66 1024.89 1025.00 1025.05 1025.04 1024.90 1024.68 1024.60 1024.55 1024.35 1024.08 1023.90 1023.51 1022.95 1022.06 1021.51 1020.64 1019.61 1018.36
1025.00 1026.21 1026.75 1026.86 1026.17 1023.88 1021.52 1021.96 1021.71 1020.69 1020.64 1020.92 1021.41 1021.68 1022.09 1021.99 1021.82 1021.92 1022.24 1022.69 1023.08 1023.51 1023.96 1024.37 1024.74 1025.03 1025.22 1025.29 1025.31 1025.10 1024.87 1024.68 1024.68 1024.55 1024.37 1024.09 1023.67 1023.16 1022.45 1021.80 1021.01 1020.20 1019.21 1017.87
1023.44 1022.63 1023.28 1023.22 1022.35 1020.84 1020.44 1019.91 1019.63 1019.89 1020.24 1020.61 1020.93 1021.02 1021.34 1021.53 1021.62 1021.85 1022.34 1022.87 1023.31 1023.84 1024.36 1024.80 1025.32 1025.50 1025.61 1025.61 1025.55 1025.20 1024.94 1024.90 1024.71 1024.60 1024.23 1023.73 1023.10 1022.40 1021.70 1020.96 1020.02 1019.24 1018.30 1017.09
1021.59 1020.94 1021.05 1021.18 1020.45 1019.82 1019.36 1019.04 1019.05 1019.17 1019.52 1019.54 1019.79 1020.16 1020.52 1021.09 1021.50 1022.10 1022.61 1023.09 1023.64 1024.17 1024.65 1025.13 1025.46 1025.62 1025.71 1025.79 1025.78 1025.68 1025.28 1025.03 1024.79 1024.29 1023.70 1023.04 1022.34 1021.45 1020.67 1019.91 1019.00 1018.09 1017.08 1015.99
1019.69 1019.59 1019.34 1019.38 1019.07 1018.48 1018.38 1018.08 1018.09 1018.37 1018.66 1019.04 1019.41 1019.88 1020.44 1021.12 1021.75 1022.39 1023.03 1023.62 1024.14 1024.66 1025.19 1025.56 1025.74 1025.88 1025.99 1025.98 1025.82 1025.68 1025.34 1025.02 1024.58 1023.90 1023.11 1022.29 1021.52 1020.62 1019.67 1018.84 1017.92 1016.87 1015.77 1014.83
1017.78 1017.33 1017.96 1017.40 1016.93 1017.19 1017.01 1016.77 1017.04 1017.79 1018.20 1018.51 1019.35 1020.23 1020.74 1021.27 1021.95 1022.73 1023.47 1024.08 1024.65 1025.27 1025.77 1025.94 1026.14 1026.26 1026.18 1026.03 1025.82 1025.50 1025.21 1024.84 1024.25 1023.39 1022.52 1021.68 1020.82 1019.77 1018.77 1017.72 1016.54 1015.47 1014.15 1012.79
Wind_Speed
3 4 7 12 10 6 3 4 5 6 8 6 9 7 9 16 10 6 8 18 12 15 13 17 17 17 18 19 19 18 17 14 10 5 4 3 2 3 3 2 0 2 4 6
1 6 12 6 5 6 7 6 6 5 5 3 8 9 17 16 7 2 17 12 12 11 16 16 16 16 17 16 16 17 16 15 11 8 4 4 3 3 2 3 4 4 2 4
8 7 7 7 4 7 4 4 4 6 4 6 5 7 7 8 15 18 15 15 15 13 14 13 14 13 13 14 13 14 14 14 13 11 8 7 5 4 5 5 4 5 6 3
7 7 9 5 5 7 4 7 5 4 3 3 3 6 9 3 13 12 11 12 12 12 13 12 12 13 12 9 8 10 12 13 12 13 10 10 6 5 4 3 3 6 8 7
7 3 2 3 6 7 6 2 3 2 2 2 6 2 9 8 6 6 7 10 11 11 11 11 10 10 9 8 8 7 9 12 11 11 11 8 9 5 3 7 10 11 8 9
6 2 3 6 1 2 4 2 3 2 3 1 6 6 7 4 9 7 7 10 10 9 8 8 7 8 9 8 8 8 8 10 9 9 10 11 11 10 9 10 9 8 8 8
3 5 2 4 2 3 4 5 3 4 2 6 3 2 7 6 7 15 15 12 10 8 8 8 9 8 9 10 9 9 10 12 12 11 10 9 7 7 7 7 6 8 8 8
3 6 7 5 7 7 6 7 5 6 4 5 8 5 3 10 16 15 13 11 8 8 7 7 7 7 7 8 8 8 8 8 9 11 12 9 10 6 4 5 5 5 5 6
4 6 1 4 2 5 4 4 3 2 2 4 5 3 6 10 12 10 10 9 7 7 7 7 7 6 6 5 5 5 6 4 4 5 5 7 7 7 7 8 7 6 6 8
2 3 4 2 3 5 1 2 2 3 1 4 4 4 5 9 9 8 7 7 6 6 7 6 5 5 4 4 4 5 4 3 2 2 2 1 4 4 4 4 6 7 8 10
4 4 5 4 5 3 2 0 2 3 5 5 3 6 1 12 9 8 7 8 7 6 6 5 4 4 4 3 2 0 1 1 1 2 2 4 5 6 4 3 4 5 6 8
0 4 5 8 5 1 5 4 5 4 4 3 0 10 8 12 10 7 7 7 7 6 7 6 6 4 1 1 2 2 2 3 3 3 3 5 5 6 6 6 6 6 6 6
6 3 2 9 5 3 5 2 5 5 3 6 5 10 7 11 6 2 5 6 6 6 3 5 4 4 4 4 4 4 4 5 5 4 4 5 6 6 7 7 7 7 8 8
4 2 7 9 4 3 3 5 5 5 3 2 12 12 23 14 4 5 5 5 5 3 2 1 1 4 5 6 6 6 7 6 6 6 6 7 7 8 10 10 7 10 11 12
3 5 4 3 4 3 5 12 4 7 13 8 21 16 18 10 1 7 7 5 5 4 5 3 1 3 5 6 6 7 7 7 6 7 7 8 7 8 11 12 11 10 10 11
4 2 3 5 2 5 11 15 10 14 19 14 16 24 6 2 7 6 6 3 3 5 4 2 4 5 6 5 6 6 7 7 6 7 8 9 11 15 16 16 16 16 17 15
5 5 4 7 3 4 10 12 15 10 5 5 9 11 2 5 6 5 2 3 5 3 4 5 5 4 4 5 5 6 6 6 6 8 11 13 14 15 16 17 18 19 19 19
7 7 4 4 5 3 6 3 4 7 5 5 3 4 6 6 5 4 2 3 5 5 4 4 3 4 3 2 4 5 6 7 9 11 12 13 13 13 14 14 15 16 16 18
3 5 2 5 6 8 9 4 5 6 7 4 6 3 4 3 2 3 4 5 5 1 1 2 2 2 3 5 4 6 9 9 10 12 12 12 10 13 15 15 16 17 18 18
5 3 6 3 6 11 8 4 4 4 7 6 6 6 6 4 1 7 6 4 2 5 4 5 5 3 5 5 8 11 10 9 10 11 12 13 14 13 14 16 18 18 18 19
4 1 15 10 6 9 8 6 5 6 9 6 7 7 5 5 8 8 2 2 2 2 4 5 5 5 5 8 9 10 11 11 11 12 13 13 13 15 15 17 14 16 17 18
9 8 5 4 4 8 6 4 7 6 3 7 6 7 8 8 9 6 6 4 1 3 3 4 4 5 7 7 8 11 12 13 14 13 14 14 14 12 12 15 14 15 16 17
2 9 9 12 9 6 7 8 7 4 5 6 7 8 10 9 7 7 4 1 2 3 4 3 4 6 6 6 8 11 13 14 14 13 14 14 14 14 14 14 15 13 14 14
5 4 5 6 6 9 10 6 7 7 7 8 7 8 7 8 6 4 3 2 0 1 3 4 6 8 8 7 10 10 13 13 13 14 14 14 14 15 14 11 11 12 12 13
9 6 4 5 8 11 11 9 10 10 9 8 5 6 7 6 4 4 3 1 0 2 3 4 6 8 9 9 10 10 12 11 12 14 14 14 12 13 14 13 12 12 14 15
11 11 7 9 15 8 8 7 7 7 9 9 9 6 5 5 6 5 4 1 1 1 3 5 6 7 9 10 11 12 10 9 12 14 12 12 12 12 12 12 13 24 29 32
Wind_Direction
218 126 201 213 205 218 267 269 258 265 280 299 279 288 283 262 287 315 316 113 90 70 61 49 40 35 32 33 35 30 33 21 28 12 38 40 34 6 3 343 143 193 191 197
62 222 228 228 234 231 226 243 263 276 280 326 286 297 276 288 280 93 111 78 75 75 60 45 40 38 37 34 34 35 34 29 25 24 4 32 38 46 56 6 358 335 265 222
189 225 194 189 260 291 279 238 236 252 297 280 304 302 292 52 76 77 74 85 73 69 69 58 49 40 40 37 29 35 33 32 29 25 28 21 17 20 16 358 1 338 308 244
250 246 236 257 252 199 254 248 221 244 82 237 63 277 291 58 84 71 78 78 82 74 66 60 49 47 41 31 28 35 35 36 33 28 36 43 52 25 353 335 331 349 1 316
252 197 152 180 219 150 227 99 166 193 192 48 288 104 267 119 86 98 87 84 77 75 74 66 53 46 39 37 34 31 42 37 29 36 40 41 40 29 354 9 2 357 354 0
240 243 216 209 42 132 146 35 311 93 117 64 266 165 287 165 172 124 100 91 84 74 73 69 62 50 38 26 21 30 30 34 24 29 34 35 31 19 23 14 13 359 352 348
308 235 202 140 93 36 84 75 317 352 17 221 189 55 245 9 84 124 120 101 91 83 64 54 43 41 38 31 21 28 28 25 17 22 28 30 22 26 30 21 7 358 349 349
216 315 167 183 183 184 171 172 169 219 211 230 11 254 322 104 95 99 97 103 95 79 80 71 60 49 45 37 30 25 30 29 19 13 9 9 17 10 8 18 17 2 349 327
206 253 196 160 183 151 177 174 192 163 48 60 210 268 105 110 104 110 106 97 100 99 90 87 76 76 70 61 47 52 46 51 46 38 14 9 351 345 346 6 1 347 336 332
170 284 291 138 34 3 107 153 48 12 295 258 264 239 216 164 143 125 116 121 125 125 112 107 99 94 84 69 45 36 27 34 28 15 1 276 276 311 357 5 348 333 324 330
125 130 262 115 194 141 36 204 192 164 164 192 252 250 201 142 149 142 169 175 160 143 141 130 121 115 117 135 132 149 6 359 302 303 308 328 319 319 314 289 286 293 307 315
302 139 213 231 261 143 180 213 170 168 240 243 218 251 152 144 153 165 193 168 159 154 160 166 171 156 123 347 327 320 319 332 290 284 302 314 311 297 285 283 273 262 261 266
175 183 356 338 9 31 74 99 105 93 79 216 217 252 121 128 145 116 173 161 129 130 153 209 204 195 216 240 252 261 269 275 282 286 299 298 294 288 275 265 262 260 263 258
76 137 173 217 165 129 281 174 114 123 187 235 249 291 285 305 355 142 99 82 111 81 31 4 349 246 259 264 263 263 263 256 264 278 286 285 285 292 291 294 283 285 284 281
122 189 205 259 124 162 220 258 172 208 239 204 272 271 277 294 200 151 135 101 61 356 312 289 319 301 288 297 296 296 275 273 277 289 291 282 284 292 290 285 281 277 274 265
354 211 82 307 264 226 265 265 252 238 249 247 256 266 275 131 94 108 105 85 311 298 328 9 311 303 305 318 316 310 315 328 341 320 302 304 306 302 293 291 290 290 287 285
136 122 86 267 28 41 299 245 232 238 202 179 221 243 214 197 146 145 124 316 289 243 253 262 261 279 335 11 353 341 333 330 325 313 309 305 303 300 300 298 296 293 291 290
136 116 98 222 32 279 242 306 223 211 226 183 104 203 190 200 153 149 236 259 250 248 272 332 17 0 24 13 359 339 342 333 325 316 312 313 314 324 330 328 323 324 324 316
147 138 129 160 202 307 291 248 181 163 272 194 178 214 182 161 335 263 250 242 229 247 84 76 42 5 1 3 10 344 327 322 320 313 313 320 332 318 313 311 310 309 306 301
167 145 149 104 174 214 237 241 156 105 274 230 159 182 165 129 309 275 263 261 293 66 46 6 6 10 4 3 349 333 326 327 315 317 318 315 312 311 309 304 301 300 299 297
107 51 209 212 228 279 240 193 150 100 255 188 178 183 186 188 214 240 227 182 128 103 32 3 11 3 360 343 336 323 321 321 325 321 312 310 307 302 295 294 295 293 292 292
156 152 195 168 222 274 160 87 175 207 178 173 188 202 215 230 245 240 200 198 20 28 31 19 4 345 338 337 332 322 321 325 323 319 313 306 300 293 290 288 286 285 286 286
185 192 182 186 203 220 199 193 217 164 172 204 204 228 216 229 223 201 200 294 8 27 358 16 352 324 327 335 331 320 318 320 319 314 306 302 298 294 289 287 286 286 282 282
276 172 216 85 231 227 225 219 223 208 221 241 233 237 205 212 192 187 197 205 144 21 350 355 336 323 322 331 324 310 312 314 311 304 305 302 298 296 291 286 284 283 281 281
207 154 200 263 262 263 272 241 238 232 227 246 203 191 195 174 189 186 185 201 4 359 350 340 322 315 316 320 314 311 308 307 301 303 303 301 296 296 295 288 286 280 276 275
214 213 206 230 239 197 226 223 208 212 224 217 168 179 174 170 174 166 195 161 81 19 327 318 315 312 310 314 309 305 303 295 298 301 301 297 298 296 295 294 291 288 292 295